Location: The Saddle
(36.8333°N, 80.3417°W)
Time: 12:28:13
(UTC-05:00)

A-11 Canister half - Pass Details

Date: 17 December 2023
Orbit: 1512 x 1687 km, 47.2° (Epoch: 28 February)

Event Time Altitude Azimuth Distance (km) Brightness Sun altitude
Rises 02:25:27 0° 300° (WNW) 4,769 - -59.4°
Reaches altitude 10° 02:28:32 10° 303° (WNW) 3,806 - -58.8°
Maximum altitude 02:38:16 71° 27° (NNE) 1,717 - -56.9°
Exits shadow 02:45:09 23° 107° (ESE) 2,978 10.7 -55.6°
Drops below altitude 10° 02:48:20 10° 111° (ESE) 3,924 11.4 -54.9°
Sets 02:51:33 0° 114° (ESE) 4,922 12.1 -54.3°
